Regional Weather Roundup
Issued by NWS

Home | Current Version | Previous Version | Graphics & Text | Print | Product List | Glossary On
Versions: 1 2 3 4 5 6 7 8 9 10 11 12 13 14 15 16 17 18 19 20 21 22 23 24 25 26 27 28 29 30 31 32 33 34 35 36 37 38 39 40 41 42 43 44 45 46 47 48 49 50
767
ASUS45 KTFX 100910
RWRMT
MONTANA REGIONAL WEATHER ROUNDUP
NATIONAL WEATHER SERVICE GREAT FALLS MT
200 AM MST WED FEB 10 2016

NOTE: "FAIR" INDICATES FEW OR NO CLOUDS BELOW 12000 FEET WITH NO
SIGNIFICANT WEATHER AND/OR OBSTRUCTIONS TO VISIBILITY.

MTZ001>007-043-101000-
WEST OF THE DIVIDE

CITY           SKY/WX    TMP DP  RH WIND       PRES   REMARKS
KALISPELL      MOCLDY    19  17  92 CALM      30.23S FOG
MISSOULA       PTCLDY    24  20  84 CALM      30.28S
BUTTE          CLOUDY    11   7  84 S3        30.25F
MULLAN PASS    PTCLDY    39  27  62 SW10G17   30.23F
ANACONDA         N/A     27  19  74 W3        30.22F
DEER LODGE       N/A     27  25  93 W3        30.24F
HAMILTON         N/A     30  27  86 E3        30.24F
LIBBY            N/A     23  21  93 CALM      30.26S
PLAINS           N/A     28  24  85 CALM      30.24  VSB 1
$$

MTZ008-052>055-101000-
SOUTHWEST MONTANA

CITY           SKY/WX    TMP DP  RH WIND       PRES   REMARKS
BOZEMAN        CLOUDY    22  15  75 S6        30.21F WCI  14
DILLON         CLOUDY    30  21  69 S12       30.25F WCI  20
THREE FORKS      N/A     21  21 100 CALM      30.17F
$$

MTZ009-010-012-014-046-048-049-054-101000-
EAST SLOPES AND CENTRAL MONTANA

CITY           SKY/WX    TMP DP  RH WIND       PRES   REMARKS
CUT BANK       PTCLDY    48  27  44 W28       29.98S
GREAT FALLS    CLOUDY    42  23  46 SW15      30.03F
MALMSTROM AFB  CLOUDY    45  21  38 SW15      30.03F
HELENA         CLOUDY    32  26  78 W3        30.18F
CHOTEAU          N/A     52  19  28 W10       30.04S
CONRAD           N/A     48  26  42 W7        30.02F
$$

MTZ011-013-016-021-045-047-050-051-101000-
NORTH CENTRAL MONTANA

CITY           SKY/WX    TMP DP  RH WIND       PRES   REMARKS
HAVRE          CLEAR     35  25  66 W8        29.97R WCI  29
LEWISTOWN      CLOUDY    37  22  54 SW15      30.03F WCI  28
CHINOOK          N/A     39  25  56 W7        29.95S
$$

MTZ017>020-022>027-061-062-101000-
NORTHEAST MONTANA

CITY           SKY/WX    TMP DP  RH WIND       PRES   REMARKS
GLASGOW        CLEAR     32  27  81 NW8       29.88R WCI  25
JORDAN           N/A     38  29  70 W12       29.89F WCI  30
SIDNEY         CLEAR     25  21  86 S8        29.85F WCI  16
WOLF POINT     CLEAR     28  25  88 W5        29.87F
MALTA            N/A    N/A N/A N/A MISG      29.87
PLENTYWOOD       N/A     28  25  86 S3        29.82F
POPLAR           N/A     30  28  93 W6        29.85F WCI  24
SCOBEY           N/A     30  23  75 CALM      29.82
$$

MTZ028>42-056>058-101000-
SOUTHCENTRAL AND SOUTHEAST MONTANA

CITY           SKY/WX    TMP DP  RH WIND       PRES   REMARKS
BAKER          CLEAR     33  25  72 W7        29.89F WCI  27
BILLINGS       CLOUDY    44  22  41 SW25      30.02F
LIVINGSTON     CLOUDY    46  22  38 W32G51    30.12F
MILES CITY     CLOUDY    34  25  69 W8        29.92F WCI  27
EKALAKA          N/A     44  23  43 SW13      29.89
FORSYTH          N/A     39  25  56 SW7       29.94F
LAUREL           N/A     45  21  38 SW21      30.01F
ROUNDUP          N/A     48  17  29 SW12      29.91S
$$

REGIONAL REPORTS...DAKOTAS

CITY           SKY/WX    TMP DP  RH WIND       PRES   REMARKS
WILLISTON      CLOUDY    26  22  84 S3        29.84F
MINOT          CLOUDY    20  12  71 E14       29.90F WCI   7
DICKINSON      CLOUDY    26  22  84 W8        29.83F WCI  18
BEACH            N/A     32  28  86 CALM      29.89F
CROSBY           N/A     25  25 100 S6        29.83F WCI  18
TIOGA            N/A     27  27 100 W3        29.87F
WATFORD CITY     N/A     27  25  93 SW6       29.84F WCI  20
BISMARCK       CLOUDY    28  21  75 E10       29.93F WCI  19
GRAND FORKS    CLOUDY     4  -4  69 E7        30.15F WCI  -8
FARGO          CLOUDY     5  -1  76 E3        30.15F
BUFFALO SD       N/A     36  26  67 W13       29.82F WCI  27
RAPID CITY     CLEAR     32  25  75 CALM      29.93F
$$

REGIONAL REPORTS...WYOMING/IDAHO/WASHINGTON

CITY           SKY/WX    TMP DP  RH WIND       PRES   REMARKS
GILLETTE       CLEAR     43  21  41 SW14      30.01F
SHERIDAN       CLOUDY    33  20  58 CALM      30.01F
BUFFALO WY     CLOUDY    50  14  23 W13       30.05F
CODY           CLOUDY    55  12  18 W17       30.14S
YELLOWSTONE LA   N/A      7   4  87 CALM      30.41F
IDAHO FALLS    FOG       11   8  88 N7        30.42F VSB 3/4 WCI   0
SALMON         CLOUDY     5   3  92 CALM      30.43S
BOISE          FOG       28  28 100 CALM      30.43F VSB 1/4
SPOKANE        PTCLDY    34  32  92 CALM      30.24F
$$

REGIONAL REPORTS...ALBERTA

CITY           SKY/WX    TMP DP  RH WIND       PRES   REMARKS
EDMONTON       CLEAR     30  25  80 W5        30.04R
CALGARY        PTCLDY    32  19  59 N8        29.99R WCI  25
LETHBRIDGE     CLEAR     46  28  49 W17G23    29.99R
MEDICINE HAT   CLEAR     36  28  75 W3        29.95R
WATERTON GATE    N/A     50  23  34 SW21G37     N/A
CARDSTON         N/A     54  21  28 W16G29      N/A
ONEFOUR          N/A     37  27  65 NW13        N/A  WCI  29
$$

REGIONAL REPORTS...SASKATCHEWAN

CITY           SKY/WX    TMP DP  RH WIND       PRES   REMARKS
SWIFT CURRENT  CLEAR     34  28  80 W7        29.86S WCI  28
REGINA         PTCLDY    23  21  93 E8        29.82R WCI  14
SASKATOON      MOCLDY    23  23 100 NW3       29.90R
VAL MARIE        N/A     27  23  86 W6          N/A  WCI  20
ROCKGLEN         N/A     39  28  65 W12G18      N/A  WCI  32
ASSINIBOIA       N/A     32  30  93 NW8         N/A  WCI  25
$$




USA.gov is the U.S. government's official web portal to all federal, state and local government web resources and services.